Roanoke, VA

2:34 PM EST on December 07, 2019 (GMT -0500)
Roanoke Regional-Woodrum

Weather History for KROA - October, 2019

Change the Weather History Date:

Tuesday, October 15, 2019

  Actual Average Record
Temperature  
Mean Temperature 58 °F 58 °F  
Max Temperature 73 °F 69 °F 88 °F (1941)
Min Temperature 43 °F 47 °F 27 °F (1937)
Degree Days  
Heating Degree Days 7 8  
Month to date heating degree days 91  
Since 1 July heating degree days 140  
Cooling Degree Days 0 1  
Month to date cooling degree days 17  
Year to date cooling degree days 1203  
Growing Degree Days 8 (Base 50)    
Moisture  
Dew Point 41 °F    
Average Humidity 53    
Maximum Humidity 79    
Minimum Humidity 22    
Precipitation  
Precipitation 0.00 in 0.08 in 4.95 in (1954)
Month to date precipitation 1.37  
Year to date precipitation 33.39  
Snow  
Snow 0.00 in - - ()
Month to date snowfall  
Since 1 July snowfall  
Since 1 September snowfall  
Snow Depth -    
Sea Level Pressure  
Sea Level Pressure 30.11 in    
Wind  
Wind Speed 3 mph (SSE)    
Max Wind Speed 13 mph    
Max Gust Speed 18 mph    
Visibility 10 miles    
Events      
T = Trace of Precipitation, MM = Missing Value Source: NWS Daily Summary

Daily Weather History Graph

Daily Weather History Graph

Search for Another Location

Airport or City:

Astronomy

Oct. 15, 2019 Rise Set
Actual Time 7:27 AM EDT 6:43 PM EDT
Civil Twilight 7:01 AM EDT 7:09 PM EDT
Nautical Twilight 6:31 AM EDT 7:39 PM EDT
Astronomical Twilight 6:00 AM EDT 8:09 PM EDT
Moon 8:03 PM EDT (10/15) 8:55 AM EDT (10/15)
Length of Visible Light 12h 08m
Length of Day
11h 15m
Full, 97% of the Moon is Illuminated
Oct 15
Full
Oct 21
Last Quarter
Oct 27
New
Nov 4
First Quarter
Nov 12
Full

Hourly Weather History & Observations

Time (EDT) Temp. Windchill Dew Point Humidity Pressure Visibility Wind Dir Wind Speed Gust Speed Precip Events Conditions
12:54 AM 54.0 °F - 41.0 °F 62% 30.12 in 10.0 mi Calm Calm - N/A   Clear
1:54 AM 53.1 °F - 41.0 °F 64% 30.12 in 10.0 mi Calm Calm - N/A   Clear
2:54 AM 50.0 °F - 41.0 °F 71% 30.13 in 10.0 mi Calm Calm - N/A   Clear
3:54 AM 48.9 °F - 41.0 °F 74% 30.13 in 10.0 mi Calm Calm - N/A   Clear
4:54 AM 48.9 °F - 39.9 °F 71% 30.14 in 10.0 mi Calm Calm - N/A   Clear
5:54 AM 48.0 °F - 39.9 °F 74% 30.16 in 10.0 mi Calm Calm - N/A   Clear
6:54 AM 48.0 °F - 39.9 °F 74% 30.18 in 10.0 mi Calm Calm - N/A   Clear
7:54 AM 46.0 °F 43.9 °F 39.9 °F 79% 30.20 in 10.0 mi WNW 4.6 mph - N/A   Clear
8:54 AM 50.0 °F - 42.1 °F 74% 30.21 in 10.0 mi Calm Calm - N/A   Clear
9:54 AM 55.9 °F - 42.1 °F 60% 30.20 in 10.0 mi Calm Calm - N/A   Clear
10:54 AM 61.0 °F - 39.9 °F 46% 30.19 in 10.0 mi Calm Calm - N/A   Clear
11:54 AM 66.0 °F - 41.0 °F 40% 30.17 in 4.0 mi Variable 6.9 mph - N/A   Haze
11:56 AM 66.0 °F - 41.0 °F 40% 30.19 in 10.0 mi SE 9.2 mph - N/A   Clear
12:54 PM 68.0 °F - 41.0 °F 37% 30.14 in 10.0 mi SSE 6.9 mph - N/A   Clear
1:54 PM 72.0 °F - 41.0 °F 33% 30.12 in 10.0 mi SE 10.4 mph - N/A   Clear
2:54 PM 72.0 °F - 41.0 °F 33% 30.08 in 10.0 mi SSE 9.2 mph - N/A   Clear
3:54 PM 73.0 °F - 41.0 °F 31% 30.06 in 10.0 mi SSE 9.2 mph 18.4 mph N/A   Clear
4:54 PM 73.0 °F - 41.0 °F 31% 30.04 in 10.0 mi SSE 12.7 mph - N/A   Clear
5:54 PM 71.1 °F - 41.0 °F 34% 30.04 in 10.0 mi SSE 10.4 mph - N/A   Clear
6:54 PM 68.0 °F - 41.0 °F 37% 30.03 in 10.0 mi South 6.9 mph - N/A   Clear
7:54 PM 64.9 °F - 42.1 °F 43% 30.04 in 10.0 mi SSE 4.6 mph - N/A   Clear
8:54 PM 64.0 °F - 43.0 °F 46% 30.03 in 10.0 mi Calm Calm - N/A   Clear
9:54 PM 55.9 °F - 45.0 °F 67% 30.03 in 10.0 mi Calm Calm - N/A   Clear
10:54 PM 55.0 °F - 46.0 °F 72% 30.03 in 10.0 mi Calm Calm - N/A   Clear
11:54 PM 55.0 °F - 46.0 °F 72% 30.01 in 10.0 mi Calm Calm - N/A   Overcast